User: anonymous   Login
Location: Dompnac
(44.5644°N, 4.1026°E)
Time: 05:07:31
(UTC+00:00)
Language:

Meteor 1-24 Rocket - Orbit

View from above orbital plane
View from above orbital plane
View from above satellite
View from above satellite

Ground track
Ground track

The orbit data is extracted from the following two-line orbital elements,

1  8800U 76032B   20333.51641524 -.00000017 +00000-0 -15970-4 0  9999
2  8800 081.2524 071.1821 0093731 216.1228 143.3589 14.10152228295606
Epoch (UTC): 28 November 2020 12:23:38
Eccentricity: 0.0093731
inclination: 81.2524°
perigee height: 791 km
apogee height: 926 km
right ascension of ascending node: 71.1821°
argument of perigee: 216.1228°
revolutions per day: 14.10152228
mean anomaly at epoch: 143.3589°
orbit number at epoch: 29560

The dashed part of the orbit path shows where the satellite is in the earth's shadow,  

DLR